Location: Wyoming Infrared Observatory
(41.0971°N, 105.9765°W)
Time: 07:01:34
(UTC-07:00)

Amateur Radio Satellites - All Passes

Search period start: 17 December 2017 06:31
Search period end: 18 December 2017 06:31
Location: Wyoming Infrared Observatory, 41.0971°N, 105.9765°W

Satellite Date Start Highest point End Downlink Frequencies (MHz)
Time Altitude Azimuth
XW-2B 17 Dec 06:31:36 06:35:23 55° 285° (WNW) 06:39:08 145.730 - 145.750
SEEDS 17 Dec 06:32:37 06:35:47 20° 93° (E) 06:38:54 437.485
UWE-3 17 Dec 06:37:42 06:39:44 13° 91° (E) 06:41:47 435.000/436.395/437.385
XW-2F 17 Dec 06:41:09 06:44:49 44° 287° (WNW) 06:48:28 145.980 - 146.000
CUBEBUG 2 17 Dec 06:42:48 06:46:27 26° 96° (E) 06:50:09 437.445
AAUSAT CUBESAT 2 17 Dec 06:44:28 06:45:25 11° 89° (E) 06:46:22 437.432
ZACube-1 17 Dec 06:57:03 06:58:06 11° 90° (E) 06:59:10 437.345
O/OREOS (USA 219) 17 Dec 06:58:00 07:01:35 23° 102° (ESE) 07:05:11 437.305
XW-2C 17 Dec 06:59:39 07:02:52 25° 290° (WNW) 07:06:04 145.795 - 145.815
CUTE 1.7 + AOD 2 17 Dec 07:00:30 07:04:48 71° 101° (ESE) 07:09:03 437.475
NO-84 17 Dec 07:14:40 07:16:42 16° 336° (NNW) 07:18:51 435.350 FM
CUTE-I 17 Dec 07:20:54 07:25:43 36° 292° (WNW) 07:30:31 437.470
AO-85 17 Dec 07:22:27 07:26:03 20° 249° (WSW) 07:29:46 145.980
AO-73 17 Dec 07:27:08 07:30:30 21° 94° (E) 07:33:54 145.935
XW-2A 17 Dec 07:29:59 07:33:10 34° 98° (E) 07:36:18 145.665 - 145.685
HO-68 17 Dec 07:42:00 07:49:08 71° 290° (WNW) 07:56:13 435.675
NUDT-PHONESAT 17 Dec 07:42:47 07:44:24 12° 295° (WNW) 07:46:00 437.300
STRAND 1 17 Dec 07:51:07 07:55:00 22° 266° (W) 07:58:55 437.568
FO-29 17 Dec 07:59:01 08:06:47 71° 258° (WSW) 08:14:37 435.910
SEEDS 17 Dec 08:07:41 08:11:31 33° 289° (WNW) 08:15:19 437.485
UWE-3 17 Dec 08:12:13 08:16:28 56° 286° (WNW) 08:20:51 435.000/436.395/437.385
AAUSAT CUBESAT 2 17 Dec 08:17:08 08:21:15 61° 285° (WNW) 08:25:19 437.432
CUBEBUG 2 17 Dec 08:19:21 08:22:59 27° 290° (WNW) 08:26:41 437.445
ZACube-1 17 Dec 08:30:25 08:34:47 69° 284° (WNW) 08:39:13 437.345
O/OREOS (USA 219) 17 Dec 08:36:35 08:40:47 35° 299° (WNW) 08:44:59 437.305
CUTE 1.7 + AOD 2 17 Dec 08:38:45 08:40:01 11° 298° (WNW) 08:41:16 437.475
Oscar 11 17 Dec 08:44:52 08:49:15 84° 283° (WNW) 08:53:36 .
PRISM 17 Dec 08:50:32 08:53:25 19° 66° (ENE) 08:56:19 437.425
DELFI C3 17 Dec 08:51:22 08:54:20 20° 94° (E) 08:57:16 145.870
TIGRISAT 17 Dec 09:01:43 09:05:58 78° 76° (ENE) 09:10:14 435.000
AO-73 17 Dec 09:02:47 09:06:46 35° 289° (WNW) 09:10:50 145.935
XW-2A 17 Dec 09:03:48 09:05:31 13° 293° (WNW) 09:07:15 145.665 - 145.685
UNISAT 6 17 Dec 09:05:49 09:10:07 86° 260° (W) 09:14:23 437.425
ISS 17 Dec 09:28:30 09:30:40 17° 131° (SE) 09:32:50 437.550
HO-68 17 Dec 09:32:09 09:35:37 14° 309° (NW) 09:39:04 435.675
FO-29 17 Dec 09:49:39 09:52:56 13° 276° (W) 09:56:15 435.910
Max Valier Satellite 17 Dec 09:56:57 10:00:42 90° 359° (N) 10:04:26 145.860
QB50P2 17 Dec 09:57:58 10:00:07 14° 64° (ENE) 10:02:16 145.880/145.840
AIST 2D 17 Dec 10:08:26 10:11:46 42° 74° (ENE) 10:15:08 435.315
nSIGHT-1 17 Dec 10:10:30 10:13:40 60° 140° (SE) 10:16:51 .
EO-88 17 Dec 10:17:45 10:21:25 73° 284° (WNW) 10:25:03 145.990 - 145.960
PRISM 17 Dec 10:24:32 10:28:23 37° 262° (W) 10:32:17 437.425
NANOSAT C BR1 17 Dec 10:25:06 10:28:16 21° 67° (ENE) 10:31:26 145.865
DELFI C3 17 Dec 10:25:40 10:29:04 28° 290° (WNW) 10:32:26 145.870
NO-84 17 Dec 10:32:05 10:33:49 13° 20° (NNE) 10:35:36 435.350 FM
LO-87 17 Dec 10:38:56 10:41:41 21° 95° (E) 10:44:27 145.935 - 145.965
EO-79 17 Dec 10:41:45 10:45:35 36° 71° (ENE) 10:49:26 145.935-145.965
ISS 17 Dec 11:03:36 11:06:51 56° 328° (NNW) 11:10:06 437.550
POLYITAN 1 17 Dec 11:05:16 11:09:24 68° 75° (ENE) 11:13:35 437.675
ESTCUBE 1 17 Dec 11:19:39 11:24:06 51° 100° (E) 11:28:29 437.505/2401.250
SPROUT 17 Dec 11:21:50 11:23:23 12° 90° (E) 11:24:57 437.525
DUCHIFAT 1 17 Dec 11:31:11 11:35:21 80° 257° (WSW) 11:39:31 145.980
QB50P2 17 Dec 11:31:20 11:35:26 52° 260° (W) 11:39:33 145.880/145.840
AO-91 17 Dec 11:37:34 11:40:27 17° 67° (ENE) 11:43:11 145.960
Gurwin Techsat 1B 17 Dec 11:43:54 11:47:23 18° 62° (ENE) 11:50:52 435.225
AIST 2D 17 Dec 11:44:21 11:45:09 11° 269° (W) 11:45:57 435.315
nSIGHT-1 17 Dec 11:47:27 11:50:05 23° 338° (NNW) 11:52:44 .
BUGSAT 1 17 Dec 11:59:33 12:03:25 47° 73° (ENE) 12:07:17 437.445
NANOSAT C BR1 17 Dec 12:00:02 12:03:46 31° 263° (W) 12:07:32 145.865
NO-84 17 Dec 12:08:10 12:11:45 48° 37° (NE) 12:15:36 435.350 FM
LO-87 17 Dec 12:12:13 12:15:00 22° 290° (WNW) 12:17:47 145.935 - 145.965
Oscar 19 17 Dec 12:14:39 12:19:30 44° 70° (ENE) 12:24:23 437.125/150
EO-79 17 Dec 12:18:32 12:21:27 18° 267° (W) 12:24:22 145.935-145.965
YUBILEINY 17 Dec 12:31:07 12:38:18 27° 67° (ENE) 12:45:23 435.215
VELOX 1 17 Dec 12:39:15 12:43:33 51° 100° (E) 12:47:49 145.980
ISS 17 Dec 12:41:41 12:43:53 16° 346° (NNW) 12:46:05 437.550
SPROUT 17 Dec 12:55:27 12:59:37 58° 286° (WNW) 13:03:47 437.525
ESTCUBE 1 17 Dec 12:57:38 13:00:27 16° 296° (WNW) 13:03:17 437.505/2401.250
UKube-1 17 Dec 13:04:36 13:06:00 11° 91° (E) 13:07:24 .
AO-91 17 Dec 13:11:56 13:16:37 50° 259° (W) 13:20:52 145.960
Gurwin Techsat 1B 17 Dec 13:21:32 13:26:48 63° 259° (W) 13:32:05 435.225
DX 1 17 Dec 13:25:04 13:28:59 33° 97° (E) 13:32:53 434.975-435.025
nSIGHT-1 17 Dec 13:25:37 13:27:10 13° 358° (N) 13:28:44 .
RS-15 17 Dec 13:30:09 13:41:53 54° 111° (ESE) 13:53:33 29.354- 29.394
AO-7 17 Dec 13:30:46 13:38:15 39° 60° (ENE) 13:45:46 .
ITAMSAT 1 17 Dec 13:36:00 13:38:59 16° 60° (ENE) 13:41:58 435.822/435.867
BUGSAT 1 17 Dec 13:37:08 13:39:01 13° 268° (W) 13:40:53 437.445
NO-84 17 Dec 13:45:51 13:48:51 22° 232° (SW) 13:51:58 435.350 FM
50 SAT 17 Dec 13:52:11 13:55:21 81° 105° (ESE) 13:58:28 437.505
Oscar 19 17 Dec 13:55:02 13:58:59 22° 266° (W) 14:02:59 437.125/150
M-CUBED/EXP-1 PRIME 17 Dec 14:12:20 14:16:34 48° 67° (ENE) 14:21:01 437.505
VELOX 1 17 Dec 14:16:57 14:19:33 16° 296° (WNW) 14:22:10 145.980
BEESAT 17 Dec 14:18:53 14:20:34 12° 90° (E) 14:22:14 436.000
ISS 17 Dec 14:19:32 14:21:22 14° 7° (N) 14:23:13 437.550
YUBILEINY 17 Dec 14:27:05 14:35:49 68° 268° (W) 14:44:27 435.215
UKube-1 17 Dec 14:38:09 14:42:23 61° 287° (WNW) 14:46:37 .
SO-50 17 Dec 14:43:22 14:47:49 84° 122° (ESE) 14:52:20 436.795
ITUPSAT 1 17 Dec 14:47:39 14:51:30 24° 95° (E) 14:55:18 437.325
DOVE 4 17 Dec 15:00:57 15:04:35 20° 65° (ENE) 15:08:09 437.250
CUBESAT XI-V 17 Dec 15:01:19 15:03:11 12° 89° (E) 15:05:03 437.345
DX 1 17 Dec 15:01:36 15:04:58 22° 294° (WNW) 15:08:19 434.975-435.025
nSIGHT-1 17 Dec 15:01:52 15:04:19 20° 19° (NNE) 15:06:46 .
MOZHAYETS 4 17 Dec 15:04:10 15:08:43 55° 100° (E) 15:13:16
ITAMSAT 1 17 Dec 15:12:39 15:17:50 71° 257° (WSW) 15:23:03 435.822/435.867
AO-7 17 Dec 15:22:51 15:30:48 49° 259° (WSW) 15:38:51 .
RS-15 17 Dec 15:42:35 15:54:31 52° 314° (NW) 16:06:21 29.354- 29.394
M-CUBED/EXP-1 PRIME 17 Dec 15:48:14 15:51:10 17° 264° (W) 15:54:11 437.505
BEESAT 17 Dec 15:54:03 15:58:49 72° 286° (WNW) 16:03:33 436.000
ISS 17 Dec 15:55:35 15:58:37 33° 27° (NNE) 16:01:38 437.550
XW-2C 17 Dec 16:08:31 16:09:45 11° 64° (ENE) 16:10:59 145.795 - 145.815
ITUPSAT 1 17 Dec 16:25:00 16:29:22 36° 291° (WNW) 16:33:43 437.325
HO-68 17 Dec 16:25:50 16:30:12 17° 54° (NE) 16:34:34 435.675
SO-50 17 Dec 16:26:19 16:28:54 15° 321° (NW) 16:31:30 436.795
YUBILEINY 17 Dec 16:28:13 16:30:47 12° 287° (WNW) 16:33:20 435.215
KKS-1 17 Dec 16:30:32 16:33:38 18° 93° (E) 16:36:43 437.445
CUBESAT XI-V 17 Dec 16:36:18 16:41:00 68° 285° (WNW) 16:45:39 437.345
DOVE 4 17 Dec 16:36:43 16:41:51 54° 260° (W) 16:46:51 437.250
nSIGHT-1 17 Dec 16:37:38 16:40:52 85° 220° (SW) 16:44:04 .
MOZHAYETS 4 17 Dec 16:42:38 16:45:24 16° 297° (WNW) 16:48:12
NUDT-PHONESAT 17 Dec 16:46:30 16:49:17 21° 69° (ENE) 16:52:05 437.300
LilacSat-2 17 Dec 16:46:43 16:50:10 34° 72° (ENE) 16:53:41 437.200
PCSat 17 Dec 16:54:33 16:58:40 23° 107° (ESE) 17:02:48 145.827
KAITUO 1B 17 Dec 16:55:52 16:59:06 28° 71° (ENE) 17:02:23 145.475/437.950
XW-2D 17 Dec 16:56:12 16:59:47 42° 73° (ENE) 17:03:25 145.860 - 145.880
CUTE-I 17 Dec 17:02:31 17:07:38 47° 70° (ENE) 17:12:46 437.470
STARS 17 Dec 17:04:01 17:06:47 16° 93° (E) 17:09:33 437.465
O/OREOS (USA 219) 17 Dec 17:07:07 17:11:25 43° 63° (ENE) 17:15:40 437.305
XW-2B 17 Dec 17:12:02 17:15:47 65° 75° (ENE) 17:19:34 145.730 - 145.750
XW-2F 17 Dec 17:20:59 17:24:45 80° 77° (ENE) 17:28:34 145.980 - 146.000
SEEDS 17 Dec 17:24:53 17:27:13 15° 64° (ENE) 17:29:34 437.485
ISS 17 Dec 17:32:06 17:35:05 32° 224° (SW) 17:38:02 437.550
XW-2C 17 Dec 17:39:43 17:43:26 53° 260° (W) 17:47:11 145.795 - 145.815
CUBEBUG 2 17 Dec 17:41:19 17:44:26 21° 68° (ENE) 17:47:33 437.445
CUTE 1.7 + AOD 2 17 Dec 17:52:36 17:56:41 47° 73° (ENE) 18:00:48 437.475
RS-15 17 Dec 18:01:28 18:10:50 24° 345° (NNW) 18:20:00 29.354- 29.394
XW-2A 17 Dec 18:02:27 18:03:44 12° 66° (ENE) 18:05:01 145.665 - 145.685
KKS-1 17 Dec 18:06:11 18:10:20 40° 289° (WNW) 18:14:27 437.445
HO-68 17 Dec 18:09:41 18:16:53 85° 73° (ENE) 18:24:07 435.675
NUDT-PHONESAT 17 Dec 18:19:53 18:22:58 25° 265° (W) 18:26:05 437.300
LilacSat-2 17 Dec 18:22:08 18:24:33 16° 267° (W) 18:26:59 437.200
STRAND 1 17 Dec 18:22:42 18:25:31 15° 91° (E) 18:28:21 437.568
AO-73 17 Dec 18:23:25 18:25:52 15° 65° (ENE) 18:28:19 145.935
KAITUO 1B 17 Dec 18:30:25 18:33:05 18° 266° (W) 18:35:47 145.475/437.950
XW-2D 17 Dec 18:32:24 18:34:10 13° 269° (W) 18:35:55 145.860 - 145.880
PCSat 17 Dec 18:36:26 18:41:40 51° 304° (NW) 18:46:59 145.827
STARS 17 Dec 18:39:11 18:43:20 44° 289° (WNW) 18:47:27 437.465
CUTE-I 17 Dec 18:43:47 18:47:53 22° 267° (W) 18:52:01 437.470
O/OREOS (USA 219) 17 Dec 18:47:29 18:50:26 18° 260° (W) 18:53:24 437.305
BEESAT 3 17 Dec 18:49:17 18:53:02 42° 117° (ESE) 18:56:50 437.485
SEEDS 17 Dec 18:58:20 19:02:27 50° 261° (W) 19:06:36 437.485
AAUSAT CUBESAT 2 17 Dec 19:06:17 19:10:27 83° 79° (E) 19:14:40 437.432
UWE-3 17 Dec 19:08:48 19:12:56 72° 258° (WSW) 19:17:05 435.000/436.395/437.385
FO-29 17 Dec 19:11:59 19:16:05 17° 86° (E) 19:19:53 435.910
CUBEBUG 2 17 Dec 19:17:09 19:20:52 31° 263° (W) 19:24:36 437.445
ZACube-1 17 Dec 19:25:48 19:29:55 89° 91° (E) 19:34:06 437.345
CUTE 1.7 + AOD 2 17 Dec 19:30:22 19:32:45 15° 269° (W) 19:35:09 437.475
XW-2A 17 Dec 19:32:56 19:36:03 37° 262° (W) 19:39:13 145.665 - 145.685
DELFI C3 17 Dec 19:37:34 19:39:18 13° 64° (ENE) 19:41:02 145.870
BEESAT 2 17 Dec 19:37:51 19:41:34 38° 116° (ESE) 19:45:20 435.950
Oscar 11 17 Dec 19:39:02 19:43:19 71° 75° (ENE) 19:47:39 .
AO-73 17 Dec 19:57:47 20:01:43 44° 262° (W) 20:05:42 145.935
AO-85 17 Dec 19:58:03 20:00:03 14° 109° (ESE) 20:02:04 145.980
STRAND 1 17 Dec 20:00:05 20:05:08 64° 287° (WNW) 20:10:09 437.568
HO-68 17 Dec 20:01:01 20:05:24 17° 270° (W) 20:09:49 435.675
RS-15 17 Dec 20:19:16 20:28:59 27° 21° (NNE) 20:38:17 29.354- 29.394
PCSat 17 Dec 20:25:28 20:26:24 10° 325° (NW) 20:27:20 145.827
BEESAT 3 17 Dec 20:27:45 20:30:44 20° 314° (NW) 20:33:44 437.485
Max Valier Satellite 17 Dec 20:35:21 20:38:43 35° 72° (ENE) 20:42:06 145.860
TIGRISAT 17 Dec 20:54:00 20:56:44 16° 92° (E) 20:59:30 435.000
EO-88 17 Dec 20:54:44 20:58:10 42° 73° (ENE) 21:01:39 145.990 - 145.960
FO-29 17 Dec 20:55:15 21:02:00 73° 287° (WNW) 21:07:54 435.910
UNISAT 6 17 Dec 20:57:54 21:01:07 20° 94° (E) 21:04:21 437.425
FALCONSAT 3 17 Dec 21:01:03 21:03:59 22° 164° (SSE) 21:06:56 435.103
DELFI C3 17 Dec 21:09:40 21:13:34 53° 260° (W) 21:17:29 145.870
BEESAT 2 17 Dec 21:16:14 21:19:24 22° 314° (NW) 21:22:36 435.950
SO-50 17 Dec 21:35:46 21:37:51 13° 37° (NE) 21:39:56 436.795
AO-85 17 Dec 21:36:06 21:39:54 49° 307° (NW) 21:43:56 145.980
PRISM 17 Dec 22:05:45 22:09:15 27° 96° (E) 22:12:43 437.425
Max Valier Satellite 17 Dec 22:10:43 22:12:39 14° 268° (W) 22:14:38 145.860
ESTCUBE 1 17 Dec 22:18:44 22:23:02 45° 72° (ENE) 22:27:22 437.505/2401.250
TIGRISAT 17 Dec 22:29:26 22:33:37 45° 287° (WNW) 22:37:52 435.000
EO-88 17 Dec 22:30:40 22:32:01 12° 269° (W) 22:33:23 145.990 - 145.960
RS-15 17 Dec 22:32:33 22:44:23 66° 52° (NE) 22:55:30 29.354- 29.394
UNISAT 6 17 Dec 22:33:52 22:37:55 37° 289° (WNW) 22:42:01 437.425
FALCONSAT 3 17 Dec 22:39:16 22:42:37 34° 179° (S) 22:45:59 435.103
FO-29 17 Dec 22:42:53 22:45:38 13° 308° (NW) 22:48:17 435.910
LO-87 17 Dec 22:46:51 22:50:19 57° 259° (W) 22:53:48 145.935 - 145.965
POLYITAN 1 17 Dec 22:52:23 22:53:31 11° 90° (E) 22:54:39 437.675
AIST 2D 17 Dec 23:05:57 23:09:27 53° 100° (E) 23:12:55 435.315
SO-50 17 Dec 23:14:26 23:19:07 72° 56° (ENE) 23:23:50 436.795
DUCHIFAT 1 17 Dec 23:16:09 23:18:44 16° 92° (E) 23:21:19 145.980
QB50P2 17 Dec 23:16:25 23:19:51 24° 95° (E) 23:23:18 145.880/145.840
VELOX 1 17 Dec 23:35:58 23:40:12 44° 72° (ENE) 23:44:26 145.980
PRISM 17 Dec 23:41:07 23:44:23 23° 292° (WNW) 23:47:37 437.425
NANOSAT C BR1 17 Dec 23:43:42 23:47:38 37° 98° (E) 23:51:33 145.865
SPROUT 17 Dec 23:47:57 23:52:11 81° 256° (WSW) 23:56:26 437.525
ESTCUBE 1 17 Dec 23:57:07 00:00:03 17° 268° (W) 00:03:00 437.505/2401.250
UKube-1 17 Dec 23:59:43 00:00:48 11° 61° (ENE) 00:01:53 .
EO-79 18 Dec 00:01:23 00:05:35 70° 101° (E) 00:09:48 145.935-145.965
FALCONSAT 3 18 Dec 00:18:16 00:21:16 24° 195° (SSW) 00:24:17 435.103
50 SAT 18 Dec 00:18:16 00:20:40 20° 70° (ENE) 00:23:05 437.505
DX 1 18 Dec 00:20:22 00:24:08 29° 69° (ENE) 00:27:54 434.975-435.025
POLYITAN 1 18 Dec 00:25:29 00:29:40 62° 286° (WNW) 00:33:51 437.675
Oscar 19 18 Dec 00:27:30 00:30:30 15° 91° (E) 00:33:29 437.125/150
RS-15 18 Dec 00:45:53 00:56:02 37° 254° (WSW) 01:05:46 29.354- 29.394
DUCHIFAT 1 18 Dec 00:50:36 00:54:34 42° 288° (WNW) 00:58:32 145.980
QB50P2 18 Dec 00:51:58 00:55:36 28° 291° (WNW) 00:59:15 145.880/145.840
SO-50 18 Dec 00:56:49 00:59:00 13° 252° (WSW) 01:01:10 436.795
AO-91 18 Dec 01:02:28 01:05:14 23° 96° (E) 01:07:59 145.960
VELOX 1 18 Dec 01:13:56 01:16:49 17° 267° (W) 01:19:43 145.980
BUGSAT 1 18 Dec 01:15:58 01:20:02 85° 102° (ESE) 01:24:08 437.445
NANOSAT C BR1 18 Dec 01:20:06 01:23:03 19° 294° (WNW) 01:25:59 145.865
BEESAT 18 Dec 01:24:53 01:27:33 15° 62° (ENE) 01:30:13 436.000
UKube-1 18 Dec 01:31:52 01:36:10 76° 256° (WSW) 01:40:31 .
YUBILEINY 18 Dec 01:32:30 01:39:47 30° 83° (E) 01:47:04 435.215
Gurwin Techsat 1B 18 Dec 01:37:46 01:42:58 52° 100° (E) 01:48:07 435.225
EO-79 18 Dec 01:39:36 01:40:45 11° 298° (WNW) 01:41:55 145.935-145.965
PCSat 18 Dec 01:41:36 01:45:43 21° 46° (NE) 01:49:48 145.827
50 SAT 18 Dec 01:50:19 01:52:31 17° 265° (W) 01:54:44 437.505
ITUPSAT 1 18 Dec 01:54:13 01:58:14 28° 67° (ENE) 02:02:16 437.325
DX 1 18 Dec 01:56:39 02:00:16 25° 264° (W) 02:03:54 434.975-435.025
CUBESAT XI-V 18 Dec 02:04:45 02:06:53 13° 62° (ENE) 02:09:01 437.345
Oscar 19 18 Dec 02:05:05 02:10:15 64° 287° (WNW) 02:15:23 437.125/150
MOZHAYETS 4 18 Dec 02:05:40 02:10:04 51° 72° (ENE) 02:14:30
AO-91 18 Dec 02:39:20 02:41:36 17° 292° (WNW) 02:43:50 145.960
BEESAT 18 Dec 03:00:05 03:04:47 62° 258° (WSW) 03:09:31 436.000
BEESAT 3 18 Dec 03:05:59 03:09:18 25° 48° (NE) 03:12:32 437.485
Gurwin Techsat 1B 18 Dec 03:18:37 03:22:30 21° 297° (WNW) 03:26:24 435.225
AO-7 18 Dec 03:23:58 03:32:14 58° 103° (ESE) 03:40:26 .
PCSat 18 Dec 03:24:12 03:29:34 65° 245° (WSW) 03:34:55 145.827
M-CUBED/EXP-1 PRIME 18 Dec 03:25:15 03:29:17 34° 101° (ESE) 03:33:03 437.505
ITAMSAT 1 18 Dec 03:25:42 03:30:33 40° 98° (E) 03:35:23 435.822/435.867
YUBILEINY 18 Dec 03:27:19 03:35:59 59° 282° (WNW) 03:44:44 435.215
KKS-1 18 Dec 03:28:41 03:31:43 18° 65° (ENE) 03:34:46 437.445
ITUPSAT 1 18 Dec 03:31:46 03:35:58 31° 263° (W) 03:40:10 437.325
CUBESAT XI-V 18 Dec 03:38:59 03:43:37 71° 258° (WSW) 03:48:20 437.345
MOZHAYETS 4 18 Dec 03:44:51 03:47:30 15° 269° (W) 03:50:10
BEESAT 2 18 Dec 03:55:27 03:58:46 24° 47° (NE) 04:02:03 435.950
STARS 18 Dec 04:00:51 04:03:28 16° 64° (ENE) 04:06:06 437.465
AO-85 18 Dec 04:26:42 04:30:11 20° 44° (NE) 04:33:48 145.980
DOVE 4 18 Dec 04:36:12 04:40:19 39° 97° (E) 04:44:16 437.250
BEESAT 3 18 Dec 04:43:23 04:46:48 29° 246° (WSW) 04:50:09 437.485
M-CUBED/EXP-1 PRIME 18 Dec 04:59:55 05:03:25 23° 299° (WNW) 05:06:44 437.505
NO-84 18 Dec 05:00:04 05:02:52 45° 133° (SE) 05:05:50 435.350 FM
KKS-1 18 Dec 05:03:40 05:07:55 44° 261° (W) 05:12:12 437.445
ITAMSAT 1 18 Dec 05:05:35 05:09:47 25° 295° (WNW) 05:13:57 435.822/435.867
XW-2C 18 Dec 05:13:10 05:15:31 15° 92° (E) 05:17:51 145.795 - 145.815
AO-7 18 Dec 05:17:19 05:24:33 34° 302° (WNW) 05:31:48 .
CUTE-I 18 Dec 05:20:32 05:24:11 18° 92° (E) 05:27:48 437.470
FO-29 18 Dec 05:26:05 05:28:35 12° 51° (NE) 05:31:04 435.910
YUBILEINY 18 Dec 05:32:33 05:35:00 11° 306° (NW) 05:37:26 435.215
BEESAT 2 18 Dec 05:32:55 05:36:31 32° 245° (WSW) 05:40:03 435.950
STARS 18 Dec 05:35:07 05:39:23 50° 260° (W) 05:43:40 437.465
STRAND 1 18 Dec 05:38:08 05:42:01 23° 65° (ENE) 05:45:56 437.568
HO-68 18 Dec 05:39:41 05:43:39 15° 89° (E) 05:47:35 435.675
NUDT-PHONESAT 18 Dec 05:49:20 05:52:35 27° 96° (E) 05:55:48 437.300
LilacSat-2 18 Dec 05:53:33 05:57:22 52° 99° (E) 06:01:08 437.200
KAITUO 1B 18 Dec 06:00:06 06:03:42 39° 98° (E) 06:07:15 145.475/437.950
XW-2D 18 Dec 06:02:18 06:06:08 65° 100° (E) 06:09:56 145.860 - 145.880
AO-85 18 Dec 06:06:10 06:11:00 68° 240° (WSW) 06:16:08 145.980
DOVE 4 18 Dec 06:14:41 06:17:41 18° 295° (WNW) 06:20:35 437.250
XW-2B 18 Dec 06:18:19 06:22:11 83° 283° (WNW) 06:26:02 145.730 - 145.750
